Volver al catálogo

SL-24 DEB

ActivoSSO
NORAD 35689·DEBRIS·🇷🇺 Russia

Lanzado Jul 29, 2009 desde Baikonur Cosmodrome

Loading…

Próximos Pases (próximas 24 horas)

TLE

ActualizadoSource: Space-Track

Época: Sep 14, 2026, 13:03 UTC

1 35689U 09041J   26257.54433582  .00001297  00000-0  15559-3 0  9998
2 35689  97.6499  64.2957 0018617 336.5925  23.4441 14.85565556922355

Sigue SL-24 DEB en tiempo real con AllMySat

Download on the App Store